Pilotenausbildung PDF Drucken E-Mail

Im Rahmen einer Ausbildung können folgende Qualifikationen/Berechtigungen erworben werden:

  • Privatpilot (PPL-A)
  • Berufspilot (CPL)
  • Segelflugschein (PPL-C)
  • Hubschrauberschein (PPL-H)
  • Ballonfahrer (PPL-D)
  • Instrumentenflug (IFR)
  • Sportpilot (SPL)
  • Kunstflug


Mehr Informationen erhalten Sie, wenn Sie auf die jeweiligen Firmennamen klicken.

Motorflug R, CH, Sch Air Hamburg

R, CH, Sch, K Canair

R, CH, Sch Flugschule Hamburg

R, CH, Sch, K Hanseair

Sch Aeroclub Hamburg (Motorflug) e.V.

Sch

Vereinigung Hanseatischer Fliegerfreunde e.V.

Hubschrauber R, CH, Sch CityCopter

R, CH, Sch Nordcopters GmbH
Segelflugzeug Sch Luftsportverein Kreis Pinneberg e.V.

Sch Segelflug-Club Uetersen e.V.
Bannerwerbung
Aerial Sign
Ultraleichflug R, CH, Sch

JoyAIR Ultraleicht (Sportpilot SPL)

Ballonfahrt
Balloon Adventure Hamburg
 

Zufallsbild

Aktuelle Termine

Mo Di Mi Do Fr Sa So
30 31 1 2 3 4 5
6 7 8 9 10 11 12
13 14 15 16 17 18 19
20 21 22 23 24 25 26
27 28 29 30 1 2 3

Pilotenwetter

[source: ADDS]
METAR
EDDH 180750Z 23014G26KT 9999 FEW015 SCT070 BKN250 06/02 Q1012 NOSIG =
TAF
TAF EDDH 180500Z 1806/1912 23012KT 9999 SCT030 BECMG 1807/1809 25015G30KT TEMPO 1809/1814 SHRA BKN012CB PROB40 TEMPO 1809/1814 3500 SHRAGS BECMG 1815/1817 25012KT TEMPO 1900/1912 25015G25KT SHRA BKN012CB PROB30 TEMPO 1903/1912 27020G35KT 2500 TSRAGS =